DELTA 1 DEB, 10706

Orbit data source: Space-Track

DELTA 1 DEB, 10706 is space debris in SSO originally from a launch on Thu, 29 Jul 1976 UTC launched from the Air Force Western Test Range (AFWTR). Debris objects in space refer to the collection of defunct objects orbiting the Earth. Examples of debris include non-operational satellites, rocket bodies, and fragments generated from explosions, collisions, or faulty payload assembly.

Loading next visibility...
Identifier
10706, 1976-077AB
Orbit
SSO
Country
Flag of USUS
Related business
Manufacturer
Unknown
Mission
Spacecraft
Bus & Motor
Unknown
Mass
Unknown
Launch date (UTC)
1976-07-29 (49 years ago)
Launch vehicle
Unknown
Launch site
Air Force Western Test Range (AFWTR)
Object type
Payload
Rocket body
Debris
Shape & HBR
Unknown
Radar Cross Section
Small (<0.1 m²)

Expand to show TLE details & history
Last TLE update: 1 day ago

TLE from 1 day ago
0 DELTA 1 DEB
1 10706U 76077AB  25242.04668880  .00000730  00000-0  23629-2 0  9990
2 10706 101.5534  91.0291 0392211  24.1640 129.0232 12.82931045282132
Epoch: 2025-08-30T01:07Z
TLE epoch observation values (Epoch: 2025-08-30T01:07:13.912Z)
Latitude
22.94386°
Longitude
-79.32522°
Altitude
1,529.51 km
Speed
7.012 km/s
True Right ascension
18h 23m 52s
True Declination
22° 49' 58"
Sunlit
Object was in daylight at epoch
Visualization orbit readout
Latitude
Unknown
Longitude
Unknown
Altitude
Unknown
Speed
Unknown
Apparent Right ascension
Unknown
Apparent Declination
Unknown
Sunlit
N/A
Visualization observer readout
Local Sidereal Time
16:40:16
Azimuth
Unknown
Elevation
Unknown
Doppler factor
Unknown
Orbital elements
Apogee altitude
1,629.406 km
Perigee altitude
1,024.983 km
Semi-major axis
7,705.331 km
Eccentricity
0.03922
Inclination
101.5534°
RAAN
91.0291°
Arg. of periapsis
24.164°
True anomaly
132.40823°
Mean anomaly
129.0232°
Eccentric anomaly
130.72621°
Mean motion
3.2089 °/min
Orbital period
112.19 mins
BSTAR
0.0023629
Loading maneuver chart data...
Computing Atmospheric mass density...
Loading historical data...
Loading historical data...
Loading historical data...
Loading historical data...
Loading historical data...
Loading historical data...
Loading historical data...

Documentation

Showing up to 5 results
|